User: anonymous   Login
Location: Champignolles
(47.0543°N, 4.5663°E)
Time: 14:49:32
(UTC+00:00)
Language:

Cosmos 1603 - Orbit

View from above orbital plane
View from above orbital plane
View from above satellite
View from above satellite

Ground track
Ground track

The orbit data is extracted from the following two-line orbital elements,

1 15333U 84106A   21063.18924344 -.00000294  00000-0 -12940-3 0  9997
2 15333  71.0268 132.7948 0022002 298.9667  60.9249 14.14113049879954
Epoch (UTC): 04 March 2021 04:32:30
Eccentricity: 0.0022002
inclination: 71.0268°
perigee height: 829 km
apogee height: 861 km
right ascension of ascending node: 132.7948°
argument of perigee: 298.9667°
revolutions per day: 14.14113049
mean anomaly at epoch: 60.9249°
orbit number at epoch: 87995

The dashed part of the orbit path shows where the satellite is in the earth's shadow,  

DLR